Englewood, CO

6:15 AM MDT on August 27, 2016 (GMT -0600)
Centennial

Weather History for KAPA - May, 2013

Change the Weather History Date:

Wednesday, May 22, 2013

  Actual Average Record
Temperature  
Mean Temperature 58 °F -  
Max Temperature 75 °F 70 °F 90 °F (2012)
Min Temperature 40 °F 42 °F 36 °F (2001)
Degree Days  
Heating Degree Days 7    
Month to date heating degree days 264  
Growing Degree Days 7 (Base 50)    
Moisture  
Dew Point 35 °F    
Average Humidity 48    
Maximum Humidity 73    
Minimum Humidity 22    
Precipitation  
Precipitation 0.01 in - - ()
Month to date precipitation 1.65  
Year to date precipitation 4.61  
Sea Level Pressure  
Sea Level Pressure 29.87 in    
Wind  
Wind Speed 7 mph (South)    
Max Wind Speed 30 mph    
Max Gust Speed 37 mph    
Visibility 10 miles    
Events Rain    
Averages and records for this station are not official NWS values.
T = Trace of Precipitation, MM = Missing Value Source: NWS Daily Summary

Daily Weather History Graph

Daily Weather History Graph

Search for Another Location

Airport or City:

Trip Planner

Search our weather history database for the weather conditions in past years. The results will help you decide how hot, cold, wet, or windy it might be!

Date:

Astronomy

May. 22, 2013 Rise Set
Actual Time 5:39 AM MDT 8:13 PM MDT
Civil Twilight 5:08 AM MDT 8:44 PM MDT
Nautical Twilight 4:29 AM MDT 9:23 PM MDT
Astronomical Twilight 3:46 AM MDT 10:06 PM MDT
Moon 5:39 PM MDT (5/22) 3:44 AM MDT (5/22)
Length of Visible Light 15h 36m
Length of Day
14h 33m
Waxing Gibbous, 92% of the Moon is Illuminated
May 22
Waxing Gibbous
May 24
Full
May 31
Last Quarter
Jun 8
New
Jun 16
First Quarter

Hourly Weather History & Observations

Time (MDT) Temp. Windchill Dew Point Humidity Pressure Visibility Wind Dir Wind Speed Gust Speed Precip Events Conditions
12:53 AM 48.9 °F - 32.0 °F 52% 29.90 in 10.0 mi Variable 3.5 mph - N/A   Partly Cloudy
1:53 AM 46.0 °F 41.4 °F 33.1 °F 61% 29.88 in 10.0 mi WSW 9.2 mph - N/A   Clear
2:53 AM 44.1 °F 40.8 °F 33.1 °F 65% 29.88 in 10.0 mi WSW 5.8 mph - N/A   Clear
3:53 AM 44.1 °F 40.1 °F 34.0 °F 68% 29.86 in 10.0 mi WSW 6.9 mph - N/A   Clear
4:53 AM 44.1 °F 39.5 °F 33.1 °F 65% 29.86 in 10.0 mi WSW 8.1 mph - N/A   Clear
5:53 AM 41.0 °F 38.0 °F 33.1 °F 73% 29.86 in 10.0 mi SSE 4.6 mph - N/A   Scattered Clouds
6:53 AM 46.0 °F 42.5 °F 36.0 °F 68% 29.86 in 10.0 mi South 6.9 mph - N/A   Scattered Clouds
7:53 AM 53.1 °F - 36.0 °F 52% 29.87 in 10.0 mi Calm Calm - N/A   Scattered Clouds
8:53 AM 55.9 °F - 35.1 °F 45% 29.86 in 10.0 mi Calm Calm - N/A   Scattered Clouds
9:53 AM 61.0 °F - 36.0 °F 39% 29.84 in 10.0 mi NW 3.5 mph - N/A   Scattered Clouds
10:53 AM 66.0 °F - 37.9 °F 36% 29.83 in 10.0 mi East 4.6 mph - N/A   Scattered Clouds
11:53 AM 68.0 °F - 32.0 °F 26% 29.82 in 10.0 mi Variable 5.8 mph - N/A   Scattered Clouds
12:53 PM 71.1 °F - 30.9 °F 23% 29.80 in 10.0 mi NNE 8.1 mph - N/A   Scattered Clouds
1:53 PM 73.0 °F - 32.0 °F 22% 29.78 in 10.0 mi East 9.2 mph - N/A   Scattered Clouds
2:53 PM 73.9 °F - 34.0 °F 23% 29.78 in 10.0 mi Variable 6.9 mph - N/A   Scattered Clouds
3:53 PM 73.9 °F - 33.1 °F 22% 29.78 in 10.0 mi East 11.5 mph 18.4 mph N/A   Mostly Cloudy
4:53 PM 71.1 °F - 33.1 °F 25% 29.79 in 10.0 mi SE 5.8 mph - N/A   Scattered Clouds
5:53 PM 71.1 °F - 34.0 °F 26% 29.81 in 10.0 mi ESE 8.1 mph - N/A   Scattered Clouds
6:53 PM 70.0 °F - 35.1 °F 28% 29.81 in 10.0 mi SSW 11.5 mph - N/A   Overcast
7:32 PM 66.2 °F - 35.6 °F 32% 29.97 in 10.0 mi South 13.8 mph 23.0 mph 0.00 in   Overcast
7:44 PM 66.2 °F - 33.8 °F 30% 29.97 in 10.0 mi SSE 11.5 mph - 0.00 in   Overcast
7:53 PM 66.0 °F - 34.0 °F 30% 29.84 in 10.0 mi South 12.7 mph - 0.00 in   Overcast
8:08 PM 64.4 °F - 35.6 °F 34% 30.00 in 10.0 mi WSW 10.4 mph - N/A   Mostly Cloudy
8:53 PM 64.0 °F - 37.0 °F 37% 29.89 in 10.0 mi SW 12.7 mph - 0.00 in   Overcast
9:53 PM 61.0 °F - 39.9 °F 46% 29.95 in 6.0 mi NW 9.2 mph 21.9 mph 0.00 in Rain Rain
10:53 PM 57.0 °F - 46.0 °F 67% 29.93 in 10.0 mi NNE 5.8 mph - 0.01 in   Overcast
11:53 PM 54.0 °F - 45.0 °F 72% 29.96 in 10.0 mi SE 8.1 mph - N/A   Scattered Clouds